This is the latest recevied weather packets stored in our database for station/object W6UA-13. If no packets are shown the sender has not sent any weather packets the latest 1 day(s).
| Time | Temp. | Humidity | Pressure | Rain* | Wind** | Luminosity | Snow |
|---|---|---|---|---|---|---|---|
| 1778048379 | 12.22° C | 84% | 1017.6 hPa | 0 mm | - | 0 W/m² | - |
| 1778047479 | 12.22° C | 84% | 1017.5 hPa | 0 mm | - | 0 W/m² | - |
| 1778046579 | 12.22° C | 84% | 1017.5 hPa | 0 mm | - | 0 W/m² | - |
| 1778045679 | 12.22° C | 83% | 1017.4 hPa | 0 mm | - | 0 W/m² | - |
| 1778044779 | 12.78° C | 83% | 1017.4 hPa | 0 mm | - | 0 W/m² | - |
| 1778043879 | 12.78° C | 82% | 1017.2 hPa | 0 mm | - | 0 W/m² | - |
| 1778042979 | 12.78° C | 82% | 1017 hPa | 0 mm | - | 0 W/m² | - |
| 1778042079 | 12.78° C | 81% | 1017 hPa | 0 mm | - | 0 W/m² | - |
| 1778041179 | 12.78° C | 80% | 1016.9 hPa | 0 mm | - | 0 W/m² | - |
| 1778040279 | 13.33° C | 80% | 1016.8 hPa | 0 mm | - | 0 W/m² | - |
| 1778039379 | 13.33° C | 79% | 1016.5 hPa | 0 mm | - | 0 W/m² | - |
| 1778038479 | 13.33° C | 78% | 1016.4 hPa | 0 mm | - | 0 W/m² | - |
| 1778037579 | 13.89° C | 77% | 1016.2 hPa | 0 mm | - | 0 W/m² | - |
| 1778036679 | 13.89° C | 77% | 1015.9 hPa | 0 mm | - | 0 W/m² | - |
| 1778035779 | 13.89° C | 75% | 1015.9 hPa | 0 mm | - | 5 W/m² | - |
| 1778034879 | 14.44° C | 73% | 1015.9 hPa | 0 mm | - | 11 W/m² | - |
| 1778033979 | 15° C | 71% | 1015.9 hPa | 0 mm | - | 19 W/m² | - |
| 1778033079 | 15.56° C | 68% | 1015.9 hPa | 0 mm | - | 72 W/m² | - |
| 1778032179 | 16.11° C | 64% | 1015.9 hPa | 0 mm | - | 83 W/m² | - |
| 1778031279 | 17.22° C | 61% | 1016 hPa | 0 mm | - | 199 W/m² | - |
| 1778030689 | 17.22° C | 62% | 1016.2 hPa | 0 mm | - | 234 W/m² | - |
| 1778030653 | 17.22° C | 62% | 1016.2 hPa | 0 mm | - | 234 W/m² | - |
| 1778030379 | 17.22° C | 62% | 1016.2 hPa | 0 mm | - | 234 W/m² | - |
| 1778029479 | 17.78° C | 61% | 1016.3 hPa | 0 mm | - | 246 W/m² | - |
| 1778028579 | 17.78° C | 60% | 1016.3 hPa | 0 mm | - | 200 W/m² | - |
* Rain latest hour (hover to see other rain measurements)
** Current wind speed in m/s (hover to see current wind gust speed)